Location: Mountain Grove
(34.0887°N, 86.6172°W)
Time: 00:39:02
(UTC+00:00)

CZ-2D R/B - Pass Details

Date: 14 July 2020
Orbit: 552 x 639 km, 97.9° (Epoch: 12 August)

Event Time Altitude Azimuth Distance (km) Brightness Sun altitude
Rises 09:07:30 0° 5° (N) 2,910 7.8 -17.5°
Reaches altitude 10° 09:09:46 10° 1° (N) 1,988 6.8 -17.2°
Maximum altitude 09:13:57 51° 286° (WNW) 770 3.8 -16.6°
Enters shadow 09:15:40 31° 227° (SW) 1,070 4.2 -16.3°
